EW2997 Weather Reports


time (UTC)temp
F
wind
direction
speed
knots
gust
knots
rain 1hr
in
rain 24hr
in
rain mn
in
humidity
%
barometer
mb
20260505052059 56 144 1.7 1.7 0.00 0.00 0.00 78 1012.9
20260505035051 60 132 1.7 1.7 0.00 0.01 0.01 77 1012.9
20260505032051 58 152 0.9 0.9 0.00 0.01 0.01 80 1012.9
20260505025050 59 146 0.0 0.0 0.00 0.01 0.01 83 1012.9
20260505022045 59 150 1.7 1.7 0.00 0.01 0.01 83 1012.5
20260505015040 58 198 0.0 0.0 0.00 0.01 0.01 85 1012.5
20260505012036 59 156 0.0 0.0 0.00 0.01 0.01 87 1012.5
20260505005032 62 142 0.9 0.9 0.01 0.01 0.01 77 1012.1
20260505002031 69 182 0.0 0.0 0.00 0.00 0.00 50 1011.7
20260504235031 71 178 0.9 0.9 0.00 0.00 0.00 47 1011.4
20260504232029 72 344 1.7 1.7 0.00 0.00 0.00 45 1011.4
20260504225028 74 168 5.2 5.2 0.00 0.00 0.00 42 1011.1
20260504222026 73 216 5.2 6.1 0.00 0.00 0.00 43 1011.4
20260504215025 74 246 6.1 7.0 0.00 0.00 0.00 41 1011.4
20260504212022 74 222 2.6 2.6 0.00 0.00 0.00 42 1011.4
20260504205017 73 179 9.6 10.4 0.00 0.00 0.00 41 1011.4
20260504202013 73 307 5.2 5.2 0.00 0.00 0.00 41 1011.7
20260504195011 73 222 1.7 1.7 0.00 0.00 0.00 41 1012.1
20260504192006 73 258 3.5 4.3 0.00 0.00 0.00 40 1012.9
20260504185003 73 198 5.2 6.1 0.00 0.00 0.00 38 1012.9
20260504182000 72 300 5.2 6.1 0.00 0.00 0.00 43 1013.5
20260504174958 71 204 2.6 2.6 0.00 0.00 0.00 47 1013.9
20260504171957 69 210 5.2 5.2 0.00 0.00 0.00 46 1014.5
20260504081915 41 204 0.0 0.0 0.00 0.00 0.00 78 1017.4